Weather in Ust-Bystryanskaya

Russia / Rostov Oblast     47°48′56″N   41°02′48″E
temp.,
°C
wind,
m/s
gust,
m/s
humid.,
%
clouds,
%
prec.,
mm/h
press.,
hPa
HPBL,
m
21 january, fri
fri2100:00−7sse37955 0.0 1020128
03:00−7sse389759 0.0 1019163
06:00−6se5109283 0.0 1016256
09:00−4sse81796100 1.3 1014594
12:000s81797100 1.8 1013831
15:00+1ssw61296100 2.0 1013472
18:00+1ssw71298100 0.1 1012451
21:00+1ssw61299100 0.5 1012469
22 january, sat
sat2200:000ssw3799100 2.1 1012424
03:00−1nw3698100 4.8 1012367
06:00−2w2697100 0.9 1012386
09:00−2wsw3697100 1.9 1014417
12:00−1sw4689100 0.2 1015707
15:00−1ssw368920 0.2 1015376
18:00−5se2297100 0.0 101721
21:00−4se2596100 0.0 101899
23 january, sun
sun2300:00−5ene1198100 0.0 101810
03:00−4ne2296100 0.0 101752
06:00−4ene4894100 0.1 1017263
09:00−3nne51095100 0.3 1016409
12:00−2nne71296100 1.1 1015540
15:00−2nne61097100 2.9 1015391
18:000ene4999100 2.1 1015438
21:000e61297100 2.9 1016508
24 january, mon
mon2400:000e51098100 0.8 1017436
03:00−1e51096100 1.2 1018406
06:00−2ene5995100 0.4 1019297
09:00−2ene61096100 0.5 1021315
12:00−2ene689494 0.2 1021389
15:00−1ene51097100 0.6 1022438
18:00−2ene51097100 2.2 1023392
21:00−2e51097100 2.9 1023383
25 january, tue
tue2500:00−2e5997100 1.9 1023365
03:00−3e4897100 3.1 1023297
06:00−3e3797100 0.9 1023273
09:00−3e3597100 1.9 1023214
12:00−1se2296100 0.1 1023319
15:00−1s1191100 0.1 1023321
18:00−1ese009899 0.1 102420
21:00−2sse1199100 0.2 102437